Location: Blankensee
(53.5126°N, 14.3055°E)
Time: 18:25:28
(UTC+00:00)

COSMOS 2487 - Pass Details

Date: 08 August 2020
Orbit: 439 x 443 km, 74.7° (Epoch: 19 September)

Event Time Altitude Azimuth Distance (km) Brightness Sun altitude
Exits shadow 00:10:50 18° 277° (W) 1,161 4.4 -19.1°
Maximum altitude 00:12:06 22° 308° (NW) 1,025 4.4 -19.1°
Drops below altitude 10° 00:14:52 10° 1° (N) 1,568 6.3 -19.0°
Sets 00:17:17 0° 17° (NNE) 2,444 7.8 -18.9°
